Current Weather Conditions: station LYUZ

sailwx.info

See reports from other nearby stations

no recent reports received from weather station ID LYUZ

Tides Pressure Air temp Water temp Dewpoint Dewpoint depression Visibility Wind speed Wind direction Waves Ship positions
date/time (UTC)wind fromknots sea level pressurealtimeterstation pressurevisibilityair tempwater tempwave heightnotes
2017-Nov-19 19:00 5.4-0.0
2017-Nov-19 18:30 5.4-0.0
2017-Nov-19 18:00 5.4-0.0
2017-Nov-19 17:30 5.4 1.0
2017-Nov-19 17:00 070 1 5.4 1.0
2017-Nov-19 16:30 5.4 1.0
2017-Nov-19 16:00 080 4 5.4 1.0
2017-Nov-19 15:30 090 5 5.4 1.0
2017-Nov-19 15:00 100 6 5.4 1.0
2017-Nov-19 14:30 090 4 5.4 2.0
2017-Nov-19 14:00 090 4 5.4 2.0
2017-Nov-19 13:30 110 5 5.4 2.0
2017-Nov-19 13:00 100 2 5.4 2.0
2017-Nov-19 12:30 5.4 2.0
2017-Nov-19 12:00 5.4 2.0
2017-Nov-19 11:30 5.4 2.0
2017-Nov-19 11:00 5.4 2.0
2017-Nov-19 10:30 5.4 2.0
2017-Nov-19 10:00 110 6 5.4 1.0
2017-Nov-19 09:30 090 5 5.4 1.0
2017-Nov-19 09:00 080 4 3.2 1.0
2017-Nov-19 08:30 050 2 1.1 1.0 Light drizzle. Mist.
2017-Nov-19 08:00 040 2 0.5 1.0 Light drizzle. Mist.
2017-Nov-19 07:30 0.3 1.0 Fog.
2017-Nov-19 07:00 050 1 0.1 1.0 Fog.
2017-Nov-19 06:30 0.1 1.0 Fog.
2017-Nov-19 06:00 0.1 1.0 Fog.
2017-Nov-19 05:30 0.2 1.0 Fog.
2017-Nov-19 05:00 0.2 1.0 Fog.
2017-Nov-19 04:30 330 2 0.1 1.0 Fog.
2017-Nov-19 04:00 320 4 0.1 1.0 Fog.
2017-Nov-19 03:30 320 5 0.2 1.0 Fog.
2017-Nov-19 03:00 330 5 0.1 1.0 Fog.
2017-Nov-19 02:30 330 4 0.1 1.0 Fog.
2017-Nov-19 02:00 0.2 1.0 Fog.
2017-Nov-19 01:30 310 2 0.4 1.0 Fog.
2017-Nov-19 01:00 320 2 0.2 1.0 Fog.
2017-Nov-19 00:30 330 2 0.3 1.0 Fog. Light rain.
2017-Nov-19 00:00 310 4 0.2 1.0 Fog. Light rain.
2017-Nov-18 23:30 310 4 0.2-0.0 Fog. Light rain snow.
2017-Nov-18 23:00 320 4 0.1 1.0 Fog.
2017-Nov-18 22:30 0.1 1.0 Fog.
2017-Nov-18 22:00 0.1 1.0 Fog.
2017-Nov-18 21:30 320 2 0.1 1.0 Fog. Light rain.
2017-Nov-18 21:00 320 4 0.1 1.0 Fog.
2017-Nov-18 20:30 330 4 0.1 2.0 Fog.
2017-Nov-18 20:00 330 2 0.1 2.0 Fog. Light rain showers.
2017-Nov-18 19:30 0.2 2.0 Fog. Light rain.
2017-Nov-18 19:00 0.2 2.0 Fog. Light rain.
2017-Nov-18 18:30 320 2 0.2 2.0 Fog.
2017-Nov-18 18:00 0.2 2.0 Light drizzle. Fog.
2017-Nov-18 17:30 0.2 2.0 Light drizzle. Fog.
2017-Nov-18 17:00 340 4 0.1 2.0 Light drizzle. Fog.
2017-Nov-18 16:30 340 4 0.1 2.0 Light drizzle. Fog.
2017-Nov-18 16:00 330 2 0.1 2.0 Light drizzle. Fog.
2017-Nov-18 15:30 330 4 0.1 2.0 Light drizzle. Fog.
2017-Nov-18 15:00 340 4 0.1 2.0 Light drizzle. Fog.
2017-Nov-18 14:30 330 4 0.1 2.0 Light drizzle. Fog.
2017-Nov-18 14:00 320 2 0.1 2.0 Fog.
2017-Nov-18 13:30 0.1 2.0 Light drizzle. Fog.
2017-Nov-18 13:00 320 5 0.1 2.0 Light drizzle. Fog.
2017-Nov-18 12:30 320 5 0.1 2.0 Light drizzle. Fog.
2017-Nov-18 12:00 330 5 0.1 2.0 Light drizzle. Fog.
2017-Nov-18 11:30 320 5 0.1 3.0 Light drizzle. Fog.
2017-Nov-18 11:00 330 5 0.1 3.0 Light drizzle. Fog.
2017-Nov-18 10:30 330 5 0.1 3.0 Light drizzle. Fog.
2017-Nov-18 10:00 330 5 0.1 2.0 Light drizzle. Fog.
2017-Nov-18 09:30 330 5 0.1 2.0 Light drizzle. Fog.
2017-Nov-18 09:00 340 4 0.1 2.0 Light drizzle. Fog.
2017-Nov-18 08:30 360 2 0.2 3.0 Light drizzle. Fog.
2017-Nov-18 08:00 0.1 2.0 Light drizzle. Fog.
2017-Nov-18 07:30 340 5 0.1 2.0 Light drizzle. Fog.
2017-Nov-18 07:00 340 5 0.1 2.0 Light drizzle. Fog.
2017-Nov-18 06:30 330 4 0.2 2.0 Light drizzle. Fog.
2017-Nov-18 06:00 330 2 0.2 2.0 Light drizzle. Fog.
2017-Nov-18 05:30 340 2 0.2 2.0 Fog. Light rain.
2017-Nov-18 05:00 340 5 0.2 2.0 Fog. Light rain.
2017-Nov-18 04:30 360 4 0.1 2.0 Fog.
2017-Nov-18 04:00 340 2 0.1 2.0 Fog.
2017-Nov-18 03:30 0.1 2.0 Fog.
2017-Nov-18 03:00 320 4 0.1 2.0 Fog.
2017-Nov-18 02:30 320 6 0.1 2.0 Fog.
2017-Nov-18 02:00 330 5 0.1 2.0 Fog.
2017-Nov-18 01:30 330 5 0.1 2.0 Fog.
2017-Nov-18 01:00 320 5 0.1 2.0 Fog.
2017-Nov-18 00:30 330 4 0.1 2.0 Fog.
2017-Nov-18 00:00 330 5 0.1 2.0 Fog.
2017-Nov-17 23:30 350 5 0.1 2.0 Fog.
2017-Nov-17 23:00 320 6 0.2 2.0 Fog.
2017-Nov-17 22:30 320 4 0.2 2.0 Fog.
2017-Nov-17 22:00 320 4 0.2 2.0 Fog.
2017-Nov-17 21:30 330 5 0.1 2.0 Fog.
2017-Nov-17 21:00 330 5 0.2 2.0 Fog.
2017-Nov-17 20:30 330 5 0.2 2.0 Fog. Light rain.
2017-Nov-17 20:00 340 4 0.2 2.0 Fog. Light rain.